Weather Roundup
Issued by NWS

Home | Current Version | Previous Version | Text Only | Print | Product List | Glossary On
Versions: 1 2 3 4 5 6 7 8 9 10 11 12 13 14 15 16 17 18 19 20 21 22 23 24 25 26 27 28 29 30 31 32 33 34 35 36 37 38 39 40 41 42 43 44 45 46 47 48 49 50
000
NZUS93 KARX 210010
HRRWXR

CURRENT HOURLY OBSERVATIONS ACROSS
MUCH OF THE UPPER MISSISSIPPI VALLEY
NATIONAL WEATHER SERVICE LA CROSSE WI
700 PM CDT SUN APR 20 2014


...SOUTHEAST MINNESOTA...


CITY           SKY/WX    TMP DP  RH WIND       PRES   REMARKS
ROCHESTER      MOCLDY    65  56  72 E3        29.96F
ROCHESTER/MAYO FAIR      67  54  63 CALM      29.96F
WINONA           N/A    N/A N/A N/A MISG        N/A
AUSTIN         MOCLDY    63  57  82 E6        29.94F
ALBERT LEA     PTSUNNY   68  57  68 E10       29.93F
DODGE CENTER   PTCLDY    70  55  60 SE3       29.96F
PRESTON        CLOUDY    64  56  77 E5        29.97F
OWATONNA       MOSUNNY   70  55  60 E6        29.94F
FARIBAULT      MOSUNNY   72  50  46 CALM      29.95F
$$

...ELSEWHERE IN MINNESOTA...


CITY           SKY/WX    TMP DP  RH WIND       PRES   REMARKS
MINNEAPOLIS    MOSUNNY   71  45  39 SE6       29.94F
INTNL FALLS    PTSUNNY   57  36  45 E6        29.95F
DULUTH         CLEAR     64  30  27 NE3       29.98F
RED WING       CLEAR     66  54  63 SE6       29.95F
REDWOOD FALLS  MOSUNNY   74  46  36 E6        29.91S
MANKATO        MOSUNNY   72  54  53 E8        29.93S
WORTHINGTON    MOSUNNY   75  48  38 S9        29.91F
FAIRMONT       MOSUNNY   73  54  49 SE8       29.91F
$$

...SOUTHWEST WISCONSIN...


CITY           SKY/WX    TMP DP  RH WIND       PRES   REMARKS
LA CROSSE      MOCLDY    60  54  80 CALM      29.97F
PRAIRIE DU CHI CLOUDY    58  56  90 CALM      29.95F FOG
BOSCOBEL       CLOUDY    61  56  83 NE3       29.95F
LONE ROCK      CLOUDY    61  56  83 E7        29.97F
PLATTEVILLE    CLOUDY    73  48  41 E6        30.01S
FORT MC COY    CLOUDY    60  54  78 CALM      30.01F
CAMP DOUGLAS   MOCLDY    59  59 100 E3        30.00F
VIROQUA        MOCLDY    60  60  99 NE6       29.98F
WIS DELLS      CLOUDY    58  55  88 CALM      29.99F
$$

...ELSEWHERE IN WISCONSIN...


CITY           SKY/WX    TMP DP  RH WIND       PRES   REMARKS
MILWAUKEE      CLOUDY    67  39  35 S12       30.04F
MADISON        CLOUDY    66  51  58 SE7       30.00F
GREEN BAY      CLOUDY    58  53  84 CALM      30.04F
EAU CLAIRE     CLOUDY    64  54  69 S8        29.97F
BLACK RVR FLS  MOCLDY    60  55  83 CALM      29.99F
MEDFORD        CLOUDY    56  53  89 S3        30.00F
WAUSAU         CLOUDY    57  52  83 CALM      30.00F
WIS RAPIDS     CLOUDY    59  52  77 NW3       30.02F
MARSHFIELD     CLOUDY    59  54  83 S5        30.01F
RICE LAKE      CLEAR     68  46  46 SE6       29.98S
$$

...NORTHEAST IOWA...


CITY           SKY/WX    TMP DP  RH WIND       PRES   REMARKS
WATERLOO       MOCLDY    76  52  43 MISG      29.91F
DUBUQUE        CLOUDY    73  46  38 S8        29.99F
DECORAH        CLOUDY    61  61 100 E6        29.96F FOG
MASON CITY     TSTM      62  57  83 E7        29.94S
CHARLES CITY   CLOUDY    66  57  72 E10       29.93F
OELWEIN        CLOUDY   N/A N/A N/A S13       29.95F
$$

...ELSEWHERE IN IOWA...


CITY           SKY/WX    TMP DP  RH WIND       PRES   REMARKS
DES MOINES     CLOUDY    78  52  40 S10       29.93F
IOWA CITY      MOCLDY    77  48  35 SW8       29.99F
FORT DODGE     CLOUDY    79  54  41 SW9       29.89F
MARSHALLTOWN   MOCLDY    77  52  41 S17       29.92F
CEDAR RAPIDS   MOCLDY    76  47  35 S16       29.96F
$$

...NORTHERN ILLINOIS...


CITY           SKY/WX    TMP DP  RH WIND       PRES   REMARKS
CHICAGO-OHARE  MOCLDY    75  38  26 S12       30.05S
DUPAGE         CLEAR     70  43  37 S7        30.05S
CHICAGO-MIDWAY MOCLDY    75  39  27 S7        30.06F
MOLINE         PTCLDY    77  45  32 SW7       29.99F
ROCKFORD       CLOUDY    75  41  29 S9        30.03F
STERLING       MOCLDY    79  43  27 SW3       30.01F
PEORIA         PTCLDY    77  41  27 S12       30.03F
$$

NOTE: "FAIR" INDICATES FEW OR NO CLOUDS BELOW 12,000 FEET WITH NO
SIGNIFICANT WEATHER AND/OR OBSTRUCTIONS TO VISIBILITY. WIND
SPEEDS ARE IN MILES-PER-HOUR.



USA.gov is the U.S. government's official web portal to all federal, state and local government web resources and services.